Location: Newark
(46.9000°N, 28.3500°E)
Time: 22:19:45
(UTC+00:00)

Vanguard 1 Rocket - Pass Details

Date: 28 August 2019
Orbit: 651 x 4225 km, 34.3° (Epoch: 20 September)

Event Time Altitude Azimuth Distance (km) Brightness Sun altitude
Rises 03:03:37 0° 252° (WSW) 3,094 - -3.6°
Exits shadow 03:04:42 - 245° (WSW) 2,787 9.2 -3.4°
Reaches altitude 10° 03:06:35 10° 229° (SW) 2,384 9.0 -3.1°
Maximum altitude 03:09:52 16° 191° (S) 2,290 9.2 -2.5°
Drops below altitude 10° 03:14:02 10° 156° (SSE) 3,185 10.3 -1.9°
Sets 03:19:07 0° 137° (SE) 4,818 11.5 -1.0°
